EIN19T EGNT-EGAC

Flight info

Callsign EIN19T
Flight time 0h 44m
Altitude 23000
Route GIRLI P18 GASKO P16 CROFT/N0427F240 Y70 KOLID L70 GUNTU Z196 DIGMA M146 ERDUV Z198 MASOP M148 MAGEE
Aircraft A320/M-SDE3FGHIRWY/LB1

Departure

Time 2026-04-25 16:31
Airport Newcastle International Airport (EGNT)

Arrival

Time 2026-04-25 17:15
Airport George Best Belfast City Airport (EGAC)
Time Latitude Longitude Altitude Speed Heading
2026-04-25 16:14 55.03912 -1.70457 265 ft 0 kts 266°
2026-04-25 16:15 55.03665 -1.70845 266 ft 0 kts
2026-04-25 16:25 55.03648 -1.70847 266 ft 4 kts
2026-04-25 16:25 55.03624 -1.70858 266 ft 4 kts 35°
2026-04-25 16:26 55.03613 -1.70880 266 ft 3 kts 118°
2026-04-25 16:26 55.03616 -1.70890 266 ft 0 kts 120°
2026-04-25 16:27 55.03617 -1.70890 266 ft 0 kts 120°
2026-04-25 16:28 55.03607 -1.70863 265 ft 7 kts 119°
2026-04-25 16:28 55.03598 -1.70761 265 ft 10 kts 92°
2026-04-25 16:28 55.03569 -1.70649 264 ft 11 kts 153°
2026-04-25 16:29 55.03493 -1.70645 263 ft 11 kts 183°
2026-04-25 16:29 55.03466 -1.70646 264 ft 0 kts 180°
2026-04-25 16:29 55.03455 -1.70646 264 ft 6 kts 180°
2026-04-25 16:30 55.03403 -1.70647 266 ft 6 kts 179°
2026-04-25 16:30 55.03378 -1.70623 267 ft 8 kts 133°
2026-04-25 16:30 55.03386 -1.70516 266 ft 12 kts 65°
2026-04-25 16:30 55.03473 -1.70191 264 ft 63 kts 65°
2026-04-25 16:31 55.03751 -1.69147 257 ft 125 kts 65°
2026-04-25 16:31 55.04122 -1.67698 729 ft 127 kts 67°
2026-04-25 16:31 55.04483 -1.66220 1190 ft 139 kts 67°
2026-04-25 16:31 55.04888 -1.64621 1675 ft 147 kts 65°
2026-04-25 16:32 55.05329 -1.62954 2124 ft 158 kts 64°
2026-04-25 16:32 55.05799 -1.61093 2590 ft 181 kts 65°
2026-04-25 16:32 55.06301 -1.58997 3153 ft 191 kts 66°
2026-04-25 16:32 55.06677 -1.56753 3728 ft 199 kts 86°
2026-04-25 16:33 55.06383 -1.54324 4175 ft 214 kts 120°
2026-04-25 16:33 55.05298 -1.52548 4701 ft 220 kts 161°
2026-04-25 16:33 55.03836 -1.52149 5472 ft 207 kts 182°
2026-04-25 16:33 55.02398 -1.52246 6105 ft 212 kts 189°
2026-04-25 16:34 55.00855 -1.52517 6387 ft 235 kts 189°
2026-04-25 16:34 54.99168 -1.52819 6688 ft 258 kts 192°
2026-04-25 16:34 54.97371 -1.53684 7075 ft 276 kts 205°
2026-04-25 16:34 54.95641 -1.55213 7773 ft 281 kts 214°
2026-04-25 16:35 54.93959 -1.57006 8313 ft 284 kts 214°
2026-04-25 16:35 54.92255 -1.58764 8879 ft 286 kts 213°
2026-04-25 16:35 54.90525 -1.60525 9439 ft 289 kts 213°
2026-04-25 16:35 54.88780 -1.62293 10037 ft 292 kts 213°
2026-04-25 16:36 54.87015 -1.64089 10564 ft 298 kts 213°
2026-04-25 16:36 54.86406 -1.64712 10742 ft 302 kts 213°
2026-04-25 16:36 54.83300 -1.67889 11663 ft 321 kts 213°
2026-04-25 16:36 54.81357 -1.69877 12213 ft 331 kts 213°
2026-04-25 16:37 54.79332 -1.71952 12784 ft 340 kts 212°
2026-04-25 16:37 54.77274 -1.74057 13357 ft 348 kts 213°
2026-04-25 16:37 54.75164 -1.76214 13948 ft 355 kts 213°
2026-04-25 16:37 54.73041 -1.78373 14491 ft 362 kts 211°
2026-04-25 16:38 54.70728 -1.80166 15005 ft 370 kts 200°
2026-04-25 16:38 54.68186 -1.81269 15554 ft 377 kts 193°
2026-04-25 16:38 54.65587 -1.82087 16099 ft 382 kts 193°
2026-04-25 16:38 54.62958 -1.82916 16665 ft 386 kts 192°
2026-04-25 16:39 54.60298 -1.83753 17234 ft 390 kts 192°
2026-04-25 16:39 54.57612 -1.84596 17818 ft 393 kts 192°
2026-04-25 16:39 54.54906 -1.85446 18412 ft 396 kts 192°
2026-04-25 16:39 54.52186 -1.86298 18945 ft 398 kts 192°
2026-04-25 16:40 54.49451 -1.87151 19470 ft 401 kts 191°
2026-04-25 16:40 54.46701 -1.88013 19994 ft 402 kts 192°
2026-04-25 16:40 54.43940 -1.88882 20540 ft 403 kts 192°
2026-04-25 16:40 54.41175 -1.89751 21083 ft 404 kts 192°
2026-04-25 16:41 54.38403 -1.90618 21649 ft 405 kts 191°
2026-04-25 16:41 54.37468 -1.90912 21846 ft 405 kts 192°
2026-04-25 16:41 54.30076 -1.93226 23159 ft 411 kts 191°
2026-04-25 16:42 54.27228 -1.94146 23234 ft 421 kts 194°
2026-04-25 16:42 54.24423 -1.95612 23235 ft 431 kts 202°
2026-04-25 16:42 54.21702 -1.97885 23223 ft 440 kts 211°
2026-04-25 16:42 54.19185 -2.00922 23226 ft 444 kts 220°
2026-04-25 16:43 54.16919 -2.04503 23230 ft 445 kts 223°
2026-04-25 16:43 54.14667 -2.08132 23227 ft 445 kts 223°
2026-04-25 16:43 54.12410 -2.11757 23216 ft 445 kts 224°
2026-04-25 16:43 54.10153 -2.15372 23208 ft 446 kts 223°
2026-04-25 16:44 54.07892 -2.18979 23209 ft 446 kts 223°
2026-04-25 16:44 54.05626 -2.22583 23209 ft 446 kts 223°
2026-04-25 16:44 54.03319 -2.26113 23206 ft 446 kts 219°
2026-04-25 16:44 54.00756 -2.29079 23199 ft 446 kts 210°
2026-04-25 16:45 53.97947 -2.31341 23199 ft 447 kts 202°
2026-04-25 16:45 53.95071 -2.33193 23188 ft 447 kts 202°
2026-04-25 16:45 53.92155 -2.35063 23182 ft 448 kts 202°
2026-04-25 16:45 53.89245 -2.36932 23181 ft 448 kts 202°
2026-04-25 16:46 53.86325 -2.38806 23181 ft 448 kts 202°
2026-04-25 16:46 53.83406 -2.40679 23181 ft 448 kts 202°
2026-04-25 16:46 53.80491 -2.42549 23173 ft 448 kts 202°
2026-04-25 16:46 53.79505 -2.43183 23173 ft 448 kts 202°
2026-04-25 16:47 53.74652 -2.46285 23175 ft 449 kts 202°
2026-04-25 16:47 53.71728 -2.48147 23179 ft 449 kts 202°
2026-04-25 16:47 53.68821 -2.50061 23174 ft 448 kts 206°
2026-04-25 16:47 53.66102 -2.52625 23175 ft 447 kts 216°
2026-04-25 16:48 53.63740 -2.55889 23179 ft 445 kts 226°
2026-04-25 16:48 53.61731 -2.59854 23178 ft 444 kts 236°
2026-04-25 16:48 53.60175 -2.64316 23188 ft 442 kts 246°
2026-04-25 16:48 53.58992 -2.69088 23197 ft 441 kts 250°
2026-04-25 16:49 53.58122 -2.74034 23200 ft 440 kts 259°
2026-04-25 16:49 53.57730 -2.79137 23202 ft 439 kts 268°
2026-04-25 16:49 53.57818 -2.84266 23213 ft 439 kts 275°
2026-04-25 16:49 53.58081 -2.89392 23213 ft 439 kts 275°
2026-04-25 16:50 53.58335 -2.94513 23214 ft 439 kts 275°
2026-04-25 16:50 53.58583 -2.99635 23212 ft 439 kts 274°
2026-04-25 16:50 53.58828 -3.04763 23210 ft 438 kts 274°
2026-04-25 16:50 53.59064 -3.09808 23207 ft 438 kts 274°
2026-04-25 16:51 53.59306 -3.14915 23209 ft 438 kts 275°
2026-04-25 16:51 53.59804 -3.19971 23208 ft 438 kts 281°
2026-04-25 16:51 53.60430 -3.24990 23208 ft 438 kts 281°
2026-04-25 16:51 53.60642 -3.26691 23208 ft 438 kts 281°
2026-04-25 16:52 53.61679 -3.35053 23207 ft 438 kts 281°
2026-04-25 16:52 53.62296 -3.40078 23207 ft 438 kts 281°
2026-04-25 16:52 53.62913 -3.45111 23208 ft 438 kts 281°
2026-04-25 16:52 53.63526 -3.50135 23208 ft 438 kts 281°
2026-04-25 16:53 53.64934 -3.60124 23209 ft 439 kts 289°
2026-04-25 16:53 53.66184 -3.64810 23210 ft 440 kts 297°
2026-04-25 16:53 53.67849 -3.69142 23212 ft 441 kts 304°
2026-04-25 16:54 53.69621 -3.73368 23224 ft 441 kts 304°
2026-04-25 16:54 53.71368 -3.77540 23216 ft 441 kts 304°
2026-04-25 16:54 53.73134 -3.81775 23212 ft 441 kts 303°
2026-04-25 16:54 53.74898 -3.86018 23210 ft 441 kts 303°
2026-04-25 16:55 53.76661 -3.90267 23206 ft 441 kts 303°
2026-04-25 16:55 53.78417 -3.94511 23206 ft 441 kts 303°
2026-04-25 16:55 53.80176 -3.98768 23204 ft 441 kts 303°
2026-04-25 16:55 53.81933 -4.03024 23204 ft 441 kts 303°
2026-04-25 16:56 53.83691 -4.07290 23205 ft 441 kts 303°
2026-04-25 16:56 53.84864 -4.10089 23203 ft 442 kts 306°
2026-04-25 16:56 53.86925 -4.13980 23202 ft 444 kts 315°
2026-04-25 16:56 53.89345 -4.17238 23203 ft 446 kts 324°
2026-04-25 16:57 53.92066 -4.19781 23204 ft 449 kts 334°
2026-04-25 16:57 53.93989 -4.21086 23214 ft 450 kts 336°
2026-04-25 16:57 53.97894 -4.23649 23206 ft 450 kts 336°
2026-04-25 16:57 54.00817 -4.25582 23204 ft 450 kts 336°
2026-04-25 16:58 54.03738 -4.27523 23204 ft 451 kts 336°
2026-04-25 16:58 54.06661 -4.29470 23204 ft 451 kts 336°
2026-04-25 16:58 54.09584 -4.31424 23205 ft 451 kts 336°
2026-04-25 16:58 54.12435 -4.33627 23203 ft 449 kts 328°
2026-04-25 16:59 54.15029 -4.36547 23201 ft 446 kts 320°
2026-04-25 16:59 54.17313 -4.40093 22980 ft 440 kts 311°
2026-04-25 16:59 54.19246 -4.44130 21796 ft 441 kts 303°
2026-04-25 16:59 54.20997 -4.48435 20905 ft 439 kts 303°
2026-04-25 17:00 54.22720 -4.52698 20124 ft 435 kts 303°
2026-04-25 17:00 54.24412 -4.56883 19557 ft 429 kts 303°
2026-04-25 17:00 54.26106 -4.61059 19029 ft 426 kts 303°
2026-04-25 17:00 54.27795 -4.65202 18508 ft 423 kts 303°
2026-04-25 17:01 54.29476 -4.69321 17929 ft 420 kts 303°
2026-04-25 17:01 54.31144 -4.73417 17341 ft 418 kts 303°
2026-04-25 17:01 54.32798 -4.77498 16790 ft 415 kts 303°
2026-04-25 17:01 54.34438 -4.81559 16268 ft 413 kts 302°
2026-04-25 17:02 54.36067 -4.85593 15731 ft 410 kts 302°
2026-04-25 17:02 54.37689 -4.89611 15209 ft 408 kts 303°
2026-04-25 17:02 54.39301 -4.93611 14662 ft 406 kts 303°
2026-04-25 17:02 54.40360 -4.96247 14316 ft 405 kts 302°
2026-04-25 17:03 54.42492 -5.01567 13570 ft 403 kts 302°
2026-04-25 17:03 54.44070 -5.05503 12991 ft 397 kts 303°
2026-04-25 17:03 54.45629 -5.09380 12420 ft 392 kts 303°
2026-04-25 17:03 54.47173 -5.13199 11858 ft 386 kts 303°
2026-04-25 17:04 54.48693 -5.16949 11305 ft 380 kts 303°
2026-04-25 17:04 54.50188 -5.20571 10760 ft 361 kts 307°
2026-04-25 17:04 54.51904 -5.23566 10243 ft 344 kts 320°
2026-04-25 17:04 54.53746 -5.26058 9628 ft 329 kts 321°
2026-04-25 17:05 54.55492 -5.28420 9011 ft 318 kts 320°
2026-04-25 17:05 54.58880 -5.33022 7789 ft 299 kts 320°
2026-04-25 17:05 54.60468 -5.35184 7200 ft 291 kts 320°
2026-04-25 17:06 54.62036 -5.37320 6616 ft 284 kts 320°
2026-04-25 17:06 54.63572 -5.39414 6005 ft 278 kts 320°
2026-04-25 17:06 54.65073 -5.41462 5385 ft 272 kts 320°
2026-04-25 17:06 54.66540 -5.43470 4773 ft 266 kts 320°
2026-04-25 17:07 54.67979 -5.45441 4161 ft 263 kts 319°
2026-04-25 17:07 54.69408 -5.47403 3547 ft 262 kts 320°
2026-04-25 17:07 54.70834 -5.49362 2941 ft 261 kts 320°
2026-04-25 17:07 54.72257 -5.51320 2329 ft 262 kts 321°
2026-04-25 17:08 54.73672 -5.53267 2046 ft 254 kts 321°
2026-04-25 17:08 54.75022 -5.55122 2037 ft 236 kts 320°
2026-04-25 17:08 54.76216 -5.56762 2022 ft 204 kts 320°
2026-04-25 17:08 54.77241 -5.58216 1998 ft 176 kts 312°
2026-04-25 17:09 54.77897 -5.59852 2002 ft 160 kts 290°
2026-04-25 17:09 54.78182 -5.61649 2013 ft 152 kts 271°
2026-04-25 17:09 54.78129 -5.63432 2016 ft 149 kts 255°
2026-04-25 17:09 54.77766 -5.65089 2016 ft 146 kts 235°
2026-04-25 17:10 54.77258 -5.66611 2017 ft 146 kts 237°
2026-04-25 17:10 54.76762 -5.68119 2034 ft 144 kts 236°
2026-04-25 17:10 54.76234 -5.69568 2022 ft 141 kts 224°
2026-04-25 17:10 54.75487 -5.70644 2023 ft 140 kts 214°
2026-04-25 17:11 54.74710 -5.71669 2010 ft 140 kts 212°
2026-04-25 17:11 54.73923 -5.72661 2010 ft 141 kts 214°
2026-04-25 17:11 54.73123 -5.73645 2006 ft 141 kts 213°
2026-04-25 17:11 54.72329 -5.74612 2010 ft 140 kts 213°
2026-04-25 17:12 54.71537 -5.75570 2010 ft 139 kts 212°
2026-04-25 17:12 54.70738 -5.76533 1936 ft 140 kts 213°
2026-04-25 17:12 54.69937 -5.77498 1794 ft 139 kts 212°
2026-04-25 17:12 54.69140 -5.78457 1627 ft 141 kts 212°
2026-04-25 17:13 54.68335 -5.79424 1442 ft 141 kts 213°
2026-04-25 17:13 54.67803 -5.80064 1318 ft 140 kts 210°
2026-04-25 17:13 54.66730 -5.81351 1060 ft 140 kts 211°
2026-04-25 17:13 54.65926 -5.82317 866 ft 141 kts 214°
2026-04-25 17:14 54.65132 -5.83268 682 ft 141 kts 211°
2026-04-25 17:14 54.64327 -5.84235 498 ft 140 kts 211°
2026-04-25 17:14 54.63528 -5.85192 319 ft 139 kts 212°
2026-04-25 17:14 54.62729 -5.86148 125 ft 140 kts 210°
2026-04-25 17:15 54.61965 -5.87045 19 ft 99 kts 213°
2026-04-25 17:15 54.61486 -5.87631 18 ft 68 kts 216°
2026-04-25 17:15 54.61314 -5.87785 20 ft 19 kts 169°
2026-04-25 17:15 54.61272 -5.87688 21 ft 7 kts 125°
2026-04-25 17:16 54.61267 -5.87676 21 ft 0 kts 126°
2026-04-25 17:16 54.61262 -5.87663 22 ft 6 kts 123°
2026-04-25 17:16 54.61269 -5.87587 22 ft 7 kts 53°
2026-04-25 17:16 54.61314 -5.87528 21 ft 9 kts 34°
2026-04-25 17:17 54.61375 -5.87454 21 ft 10 kts 37°
2026-04-25 17:17 54.61419 -5.87368 22 ft 9 kts 52°
2026-04-25 17:17 54.61461 -5.87306 22 ft 7 kts 34°
2026-04-25 17:17 54.61500 -5.87261 21 ft 6 kts 34°
2026-04-25 17:18 54.61543 -5.87209 21 ft 8 kts 34°
2026-04-25 17:18 54.61584 -5.87160 21 ft 6 kts 47°
2026-04-25 17:18 54.61583 -5.87115 21 ft 3 kts 141°
2026-04-25 17:18 54.61569 -5.87104 22 ft 2 kts 160°
2026-04-25 17:19 54.61562 -5.87099 21 ft 2 kts 161°
2026-04-25 17:19 54.61545 -5.87089 21 ft 0 kts 161°